Location: ??
(31.9467°N, 34.8903°E)
Time: 17:40:15
(UTC+00:00)

CZ-2C R/B - Pass Details

Date: 29 October 2020
Orbit: 703 x 909 km, 98.1° (Epoch: 30 November)

Event Time Altitude Azimuth Distance (km) Brightness Sun altitude
Rises 15:50:16 0° 145° (SE) 3,523 6.2 -12.7°
Reaches altitude 10° 15:52:51 10° 137° (SE) 2,583 5.4 -13.2°
Maximum altitude 15:58:07 37° 72° (ENE) 1,354 3.8 -14.3°
Drops below altitude 10° 16:03:18 10° 7° (N) 2,536 5.5 -15.4°
Sets 16:05:48 0° 359° (N) 3,452 6.3 -16.0°
